Wind_Speed
7 7 7 7 8 9 10 11 13 15 14 13 14 16 18 18 15 16 18 19 18 19 20 20 20 20 22 22 22 22 23 24 25 26 26 27 28 28 29 29 29 30 30 30
5 4 6 9 11 12 13 12 13 14 15 15 14 16 17 18 16 17 18 18 19 20 20 20 21 21 22 22 23 24 25 26 26 27 27 27 28 29 30 30 30 31 31 31
7 5 9 11 12 14 14 14 14 15 15 14 13 16 18 19 16 16 17 19 20 20 20 21 22 22 22 23 24 25 25 27 27 28 28 28 29 30 30 31 31 32 32 32
6 8 11 11 11 11 12 13 14 15 14 14 14 17 20 20 19 18 18 20 20 21 21 21 22 23 24 25 25 26 27 28 28 28 29 29 30 31 31 32 32 32 32 31
6 8 10 10 10 11 11 13 16 16 16 16 15 16 21 22 21 19 18 19 20 21 22 22 24 24 25 26 27 28 28 29 29 29 30 30 30 31 31 31 32 32 31 31
7 9 9 9 11 12 11 13 14 15 16 19 17 18 22 22 19 19 17 18 20 21 23 24 25 25 25 26 27 28 29 29 30 30 31 31 31 31 30 31 31 31 31 31
7 8 7 8 9 9 10 10 11 14 18 19 18 20 21 20 18 18 18 18 20 22 23 24 24 24 25 26 27 28 28 29 30 30 30 31 31 30 30 30 31 30 30 30
8 9 8 8 8 9 9 9 12 15 15 14 14 17 17 17 18 19 18 20 21 21 22 23 23 24 25 26 27 28 29 29 30 30 30 30 31 31 30 31 31 31 30 31
8 9 9 9 9 10 10 10 13 14 14 15 13 15 15 18 18 17 18 20 21 21 22 22 23 25 26 26 27 28 29 29 29 29 30 30 30 30 30 31 31 31 31 31
9 9 9 9 8 10 11 12 13 12 14 13 14 17 20 19 16 16 19 20 20 21 23 23 24 25 26 26 27 27 28 28 29 29 29 28 28 29 29 29 30 31 31 31
13 13 11 10 9 11 12 12 14 13 15 15 17 20 20 20 18 18 19 19 21 23 24 24 25 26 27 27 27 27 27 27 28 27 27 28 28 29 29 29 29 29 30 30
13 13 13 13 14 14 14 13 14 15 15 16 18 20 21 21 20 18 20 21 22 24 24 25 26 27 27 27 27 27 26 25 26 26 26 26 26 27 27 27 27 28 28 28
12 13 13 14 15 14 14 13 13 14 15 15 17 21 21 21 22 20 20 22 23 24 24 25 25 26 26 26 26 26 25 25 25 25 25 25 25 25 25 25 26 26 27 26
12 12 13 13 13 13 12 12 13 14 14 16 18 21 22 23 22 23 24 24 25 25 25 25 26 26 25 25 25 24 24 25 24 24 25 25 25 25 25 25 25 25 24 24
12 12 12 13 12 10 9 11 13 15 16 18 19 21 22 23 23 24 24 24 24 25 25 25 24 24 24 23 23 23 23 23 23 23 24 24 24 24 23 23 23 23 22 22
11 11 11 10 10 10 9 12 13 15 18 19 20 22 23 23 23 23 23 22 23 24 24 24 23 23 23 23 22 22 21 21 21 22 22 22 21 21 21 21 21 21 20 21
9 10 10 9 9 11 11 12 14 16 17 18 19 19 20 21 22 23 23 22 22 22 22 23 23 23 22 21 21 20 20 19 19 19 19 19 19 18 18 18 17 17 17 17
8 9 9 10 11 11 10 12 13 15 16 17 17 18 19 20 21 22 23 23 23 23 22 22 21 21 20 20 19 19 18 18 18 18 18 18 17 17 16 15 14 15 15 14
7 8 9 10 11 10 9 11 13 14 14 15 16 16 17 18 20 21 21 22 22 22 22 21 20 19 19 18 17 17 16 16 16 16 16 17 16 14 12 11 11 11 11 11
6 7 8 9 10 10 10 11 13 13 14 15 15 15 17 18 18 19 19 20 21 21 20 19 18 18 17 16 15 15 15 14 14 14 15 15 13 12 10 10 9 9 8 7
6 6 7 8 9 10 11 11 13 14 15 15 15 16 16 17 17 18 19 20 20 19 19 18 17 16 15 14 13 13 13 13 13 13 13 12 10 9 9 8 7 7 6 5
7 7 7 8 8 10 11 11 13 14 15 15 15 16 16 17 18 19 19 18 18 17 16 15 14 13 12 11 11 11 11 11 11 11 10 9 8 7 6 6 5 4 4 4
7 8 8 8 9 10 10 12 13 13 13 14 15 15 16 16 17 18 18 17 16 15 13 12 12 11 10 9 9 9 9 9 9 9 8 8 7 6 5 4 3 3 3 3
8 8 8 9 10 9 10 11 12 12 12 12 13 14 14 14 15 16 16 15 14 12 11 10 10 10 8 8 7 7 7 8 8 7 8 8 7 7 6 4 4 3 4 5
8 8 9 9 9 8 9 10 10 10 11 11 12 12 12 13 14 14 13 13 12 11 10 9 9 8 7 7 6 7 7 7 7 7 7 7 7 7 7 7 6 6 6 6
8 8 9 9 9 8 9 10 10 10 10 10 11 11 12 12 12 12 12 11 10 9 9 8 8 8 7 6 6 6 6 6 7 7 8 8 8 8 8 9 8 8 8 8
Wind_Direction
194 193 194 203 213 200 211 224 228 231 233 223 222 236 246 257 256 259 264 265 266 269 270 274 275 279 280 281 282 281 283 283 282 281 279 278 276 275 274 274 275 275 275 273
188 195 206 209 216 210 206 210 221 231 236 231 227 241 251 260 257 258 263 264 268 270 274 275 278 279 279 280 280 279 280 281 281 281 280 279 278 276 277 276 276 275 274 274
200 206 226 219 215 214 209 210 223 229 234 238 235 238 249 256 255 255 261 264 267 269 273 276 280 279 279 279 279 280 280 281 281 281 281 279 277 277 278 278 277 276 276 274
218 224 226 217 212 211 211 218 223 231 234 240 239 242 248 255 259 256 261 265 267 273 274 278 280 279 279 279 279 281 282 282 282 282 282 281 279 277 277 277 277 276 275 274
214 224 224 218 212 215 216 219 223 231 233 240 243 247 258 262 264 258 257 270 275 278 281 280 281 281 280 281 281 282 282 281 281 282 282 282 281 279 277 277 277 276 275 274
204 229 225 209 214 217 212 223 228 232 235 243 242 247 256 262 268 266 265 279 286 285 284 283 283 283 283 283 284 284 283 282 282 283 282 282 282 281 279 278 279 278 276 275
217 229 239 220 219 223 222 231 246 252 240 238 238 246 253 262 271 276 282 288 289 287 286 286 286 286 286 285 284 284 284 283 282 283 282 283 283 282 281 280 279 278 276 274
218 224 227 227 224 222 228 235 256 267 274 273 258 250 250 258 275 280 285 290 290 290 289 288 288 288 289 289 288 287 286 285 284 283 284 285 284 283 282 281 280 279 278 276
210 211 226 230 231 239 232 237 252 267 274 279 267 262 259 267 275 277 286 289 291 290 292 291 291 291 292 292 290 289 288 288 286 284 285 286 286 286 284 283 281 281 280 279
237 226 223 240 243 247 243 237 250 256 269 273 281 280 271 275 281 288 294 293 292 294 295 294 294 295 294 294 294 292 290 289 289 288 287 286 286 286 286 284 282 280 279 278
233 230 233 234 245 248 248 250 257 258 259 269 279 282 287 281 287 293 297 293 294 296 295 295 295 295 295 295 295 294 293 292 291 291 289 287 287 287 286 285 283 281 279 278
239 234 230 230 233 241 239 245 251 258 260 262 272 277 284 288 293 295 297 296 297 297 297 296 296 296 296 295 295 295 295 294 294 293 292 291 291 290 288 286 284 283 282 280
243 239 236 240 241 238 232 240 252 258 261 265 269 276 283 289 294 296 296 297 297 298 299 299 299 299 298 296 296 295 294 294 295 296 295 294 293 291 290 288 286 286 284 282
247 246 246 252 257 253 243 249 260 268 266 269 271 276 280 286 293 295 297 299 301 302 302 302 301 301 300 298 298 297 296 297 297 298 297 296 294 292 290 288 287 286 284 282
250 251 252 250 262 253 250 255 263 267 266 265 269 278 285 287 293 299 300 301 303 303 304 303 302 302 301 301 300 299 299 299 299 299 298 297 295 294 292 290 288 286 284 282
254 254 255 262 269 263 261 262 263 264 266 269 274 279 286 292 295 298 302 305 304 304 305 304 304 303 302 302 301 301 300 299 298 298 298 298 299 298 295 293 289 286 284 282
256 255 256 256 268 270 267 266 267 269 272 275 277 281 285 289 294 297 302 305 308 307 306 305 305 305 304 303 303 302 302 301 300 301 302 303 302 302 301 298 292 287 286 284
263 261 260 258 263 267 268 272 273 275 276 280 285 288 289 293 296 300 302 305 308 310 308 307 307 307 306 305 305 306 305 304 303 304 304 305 305 305 304 300 295 292 291 289
268 261 260 262 268 271 267 276 277 275 281 287 290 294 297 299 299 301 304 306 308 311 311 310 309 308 307 307 307 307 307 308 308 309 309 309 307 309 308 306 304 299 295 292
284 276 267 267 271 274 274 283 288 289 289 294 298 300 302 303 302 304 308 310 312 311 311 310 310 308 306 307 308 309 310 312 314 314 314 313 308 307 306 307 309 304 299 296
288 282 271 268 268 274 282 289 291 292 296 301 302 303 304 307 310 311 312 313 313 310 310 310 308 307 309 310 311 312 313 315 318 321 321 320 315 311 308 308 311 309 308 310
285 281 280 279 278 280 289 292 292 294 297 302 304 305 307 310 313 314 316 318 317 314 313 311 310 313 315 315 316 318 320 323 325 326 328 331 329 325 318 317 318 317 320 327
287 289 291 295 293 291 293 294 292 295 298 301 304 308 310 311 313 316 321 324 324 323 322 320 320 322 325 327 324 326 329 333 337 340 344 349 351 346 343 346 352 5 19 30
288 292 293 290 290 293 294 294 298 302 304 306 310 312 315 318 320 323 327 329 332 332 332 332 332 334 334 337 340 344 348 351 353 0 9 13 15 20 24 35 53 62 64 65
289 289 294 296 299 300 300 305 308 311 312 312 315 317 319 323 325 327 331 336 340 341 344 347 349 350 349 354 1 360 1 6 13 24 27 27 33 41 52 63 72 72 71 73
284 285 292 300 306 305 303 307 311 318 319 320 322 324 326 330 332 333 337 343 348 353 356 1 6 9 9 11 12 10 20 28 34 40 43 47 53 64 69 72 74 73 75 79
Height
5816 5818 5820 5823 5826 5829 5833 5836 5837 5836 5836 5837 5838 5838 5837 5838 5838 5838 5838 5838 5839 5839 5838 5838 5837 5838 5839 5838 5838 5838 5837 5836 5835 5835 5834 5833 5833 5833 5833 5832 5832 5832 5832 5831
5816 5818 5821 5823 5825 5827 5831 5834 5835 5835 5834 5835 5836 5836 5835 5835 5835 5835 5835 5834 5834 5834 5834 5835 5834 5835 5834 5834 5834 5833 5832 5831 5830 5829 5828 5827 5827 5826 5826 5826 5826 5826 5825 5825
5815 5819 5820 5821 5823 5825 5828 5831 5833 5833 5831 5832 5834 5834 5833 5832 5831 5832 5831 5830 5829 5830 5831 5831 5831 5831 5830 5829 5829 5828 5827 5826 5825 5823 5822 5822 5821 5820 5820 5820 5819 5819 5818 5818
5815 5817 5818 5819 5821 5823 5826 5828 5829 5830 5830 5830 5832 5831 5830 5828 5828 5828 5827 5826 5825 5826 5826 5827 5827 5826 5825 5824 5823 5822 5821 5820 5819 5818 5817 5815 5815 5814 5814 5813 5812 5812 5811 5811
5815 5816 5816 5818 5820 5821 5823 5824 5826 5827 5827 5827 5828 5827 5826 5823 5823 5822 5823 5823 5822 5823 5822 5822 5822 5821 5820 5819 5818 5817 5815 5814 5813 5812 5811 5809 5808 5807 5807 5806 5805 5804 5804 5804
5813 5814 5814 5816 5817 5819 5820 5822 5823 5823 5824 5824 5824 5823 5822 5818 5819 5818 5818 5819 5820 5819 5819 5818 5817 5816 5815 5814 5812 5811 5810 5808 5807 5805 5804 5803 5802 5800 5800 5799 5798 5797 5796 5796
5812 5813 5813 5814 5816 5817 5818 5820 5821 5820 5819 5819 5819 5819 5817 5815 5814 5814 5815 5816 5816 5815 5814 5813 5812 5811 5810 5808 5807 5805 5803 5802 5800 5799 5797 5796 5795 5793 5792 5791 5791 5790 5789 5789
5809 5811 5812 5813 5815 5815 5816 5819 5819 5818 5815 5814 5814 5814 5812 5811 5811 5811 5812 5812 5812 5811 5810 5809 5807 5806 5804 5802 5800 5799 5797 5795 5793 5792 5790 5789 5787 5786 5785 5784 5783 5782 5782 5781
5807 5809 5811 5812 5813 5814 5815 5816 5816 5815 5815 5814 5811 5810 5807 5807 5808 5809 5809 5809 5808 5806 5805 5804 5802 5800 5798 5796 5794 5792 5790 5788 5786 5784 5783 5781 5779 5778 5776 5776 5775 5774 5774 5773
5805 5806 5808 5810 5811 5812 5813 5813 5813 5813 5812 5811 5811 5808 5806 5804 5804 5805 5805 5805 5804 5802 5801 5799 5797 5795 5793 5790 5788 5786 5783 5781 5779 5777 5775 5773 5771 5770 5768 5767 5767 5766 5765 5765
5804 5805 5806 5808 5809 5810 5810 5811 5810 5810 5810 5810 5808 5807 5802 5802 5801 5801 5802 5800 5799 5798 5796 5794 5791 5789 5787 5784 5782 5779 5777 5774 5772 5770 5768 5766 5764 5762 5760 5759 5758 5758 5757 5757
5801 5802 5803 5804 5805 5804 5806 5807 5807 5808 5807 5807 5806 5806 5801 5799 5797 5795 5796 5796 5794 5792 5790 5788 5785 5783 5780 5777 5775 5773 5770 5768 5766 5763 5761 5759 5757 5755 5753 5752 5751 5750 5750 5749
5798 5799 5799 5800 5802 5802 5802 5803 5803 5803 5804 5804 5803 5803 5798 5796 5794 5791 5791 5791 5789 5787 5785 5782 5779 5776 5774 5771 5769 5766 5764 5762 5759 5757 5755 5752 5750 5748 5747 5745 5744 5743 5743 5742
5795 5795 5796 5797 5797 5796 5798 5801 5801 5801 5801 5800 5799 5797 5795 5793 5792 5789 5787 5786 5784 5781 5779 5776 5773 5770 5768 5765 5763 5760 5758 5756 5753 5751 5748 5746 5744 5742 5740 5739 5738 5737 5736 5736
5791 5792 5793 5793 5794 5794 5795 5797 5798 5798 5798 5797 5796 5794 5792 5789 5788 5785 5783 5781 5779 5776 5774 5771 5768 5765 5762 5759 5757 5754 5752 5750 5747 5745 5742 5740 5738 5736 5734 5733 5731 5731 5730 5730
5788 5789 5790 5791 5791 5792 5793 5794 5794 5794 5794 5793 5792 5791 5789 5786 5784 5782 5779 5777 5774 5771 5769 5766 5762 5760 5757 5754 5752 5749 5747 5744 5742 5740 5737 5735 5732 5730 5728 5727 5725 5725 5724 5724
5786 5787 5788 5789 5789 5789 5790 5791 5791 5791 5790 5789 5788 5788 5785 5783 5781 5779 5776 5773 5769 5766 5764 5761 5758 5755 5752 5749 5747 5744 5742 5740 5737 5735 5733 5730 5728 5726 5724 5722 5720 5720 5720 5719
5784 5784 5785 5786 5787 5787 5789 5787 5787 5787 5786 5785 5784 5783 5781 5779 5777 5774 5772 5769 5765 5762 5759 5756 5753 5750 5747 5744 5742 5740 5738 5735 5733 5731 5728 5726 5724 5722 5720 5718 5717 5716 5715 5715
5782 5782 5783 5783 5783 5783 5783 5784 5783 5783 5783 5782 5781 5779 5778 5776 5773 5771 5768 5764 5761 5758 5754 5751 5748 5746 5743 5740 5738 5736 5734 5731 5729 5727 5725 5722 5720 5718 5717 5716 5714 5713 5713 5712
5781 5781 5782 5781 5781 5781 5782 5781 5780 5781 5779 5779 5777 5776 5774 5772 5769 5767 5764 5760 5757 5753 5750 5747 5744 5741 5739 5737 5735 5733 5730 5728 5726 5724 5721 5719 5717 5716 5715 5714 5713 5712 5711 5710
5780 5780 5780 5780 5779 5779 5779 5779 5779 5779 5778 5775 5774 5772 5770 5768 5766 5763 5760 5756 5753 5749 5746 5743 5740 5738 5736 5734 5732 5730 5728 5726 5724 5722 5719 5717 5715 5714 5713 5712 5711 5711 5710 5709
5779 5779 5779 5778 5778 5779 5777 5776 5777 5775 5773 5772 5771 5769 5767 5765 5762 5759 5756 5752 5749 5745 5742 5739 5737 5735 5732 5731 5729 5727 5726 5724 5722 5720 5718 5716 5714 5713 5712 5711 5711 5710 5710 5709
5778 5778 5777 5777 5778 5776 5775 5774 5773 5772 5771 5769 5768 5766 5764 5761 5759 5756 5753 5749 5746 5742 5739 5737 5735 5733 5731 5729 5728 5726 5724 5723 5721 5719 5717 5715 5714 5713 5712 5711 5711 5711 5710 5710
5777 5776 5776 5775 5774 5773 5773 5771 5770 5769 5768 5767 5765 5763 5761 5758 5756 5753 5750 5746 5743 5740 5738 5736 5733 5731 5730 5728 5727 5725 5724 5722 5720 5719 5717 5716 5715 5714 5713 5712 5712 5712 5712 5712
5775 5775 5774 5773 5772 5772 5771 5769 5768 5767 5766 5764 5762 5760 5758 5756 5753 5751 5748 5745 5742 5739 5737 5735 5733 5731 5730 5728 5727 5726 5724 5723 5721 5720 5718 5717 5716 5715 5715 5714 5714 5713 5713 5713
5773 5773 5772 5772 5771 5770 5769 5768 5766 5765 5764 5762 5760 5758 5756 5754 5752 5749 5747 5744 5742 5739 5737 5735 5733 5732 5730 5729 5727 5726 5725 5724 5723 5722 5720 5719 5718 5718 5717 5716 5716 5716 5716 5716